Tracking 33057 objects as of 24-Jan-2026
HD Live streaming from Space Station
objects crossing your sky now

STARLINK-11579

Track STARLINK-11579 now!
10-day predictions
STARLINK-11579 is classified as:


NORAD ID: 63143
Int'l Code: 2025-043M
Perigee: 361.7 km
Apogee: 365.2 km
Inclination: 43.0 °
Period: 91.7 minutes
Semi major axis: 6734 km
RCS: Unknown
Launch date: March 2, 2024
Source: United States (US)
Launch site: AIR FORCE EASTERN TEST RANGE (AFETR)
Your satellite tracking list
Your tracking list is empty




NASA's NSSDC Master Catalog

Two Line Element Set (TLE):
1 63143U 25043M   26023.40399128  .00301680  00000-0  22627-2 0  9999
2 63143  42.9989 163.3413 0002601 245.2501 114.8096 15.70918700 52238
Source of the keplerian elements: AFSPC